Hourly Data Report for October 04, 2017

All times are specified in Local Standard Time (LST). Add 1 hour to adjust for Daylight Saving Time where and when it is observed.

PAULATUK
NORTHWEST TERRITORIES

69°21'28.004" N
124°04'57.005" W
6.30 m
2203058
71984
ZPK

Download Data

Hourly Data (October 2017)
Hourly Data Report for October 4, 2017
Temp Definition
°C
Dew Point Temp Definition
°C
Rel Hum Definition
%
Wind Dir Definition
10's deg

Wind Spd Definition
km/h
Visibility Definition
km
Stn Press Definition
kPa
Hmdx Definition


Wind Chill Definition


Weather Definition


TIME
00:00 -5.2 -6.8 89 10 8   102.16   -9 LegendNANA
01:00 -5.3 -6.8 89 10 8   102.18   -9 LegendNANA
02:00 -5.6 -7.2 89 10 4   102.23   -7 LegendNANA
03:00 -5.7 -7.5 88 9 9   102.22   -10 LegendNANA
04:00 -5.5 -7.1 88 12 8   102.22   -9 LegendNANA
05:00 -6.4 -8.0 88 8 9   102.26   -11 LegendNANA
06:00 -6.2 -8.3 85 8 10   102.22   -11 LegendNANA
07:00 -6.3 -8.0 88 9 7   102.25   -10 LegendNANA
08:00 -6.2 -8.0 87 11 8   102.23   -10 LegendNANA
09:00 -5.5 -8.2 81 10 4   102.27   -7 LegendNANA
10:00 -4.7 -7.9 78 12 5   102.28   -7 LegendNANA
11:00 -4.0 -7.5 77 10 5   102.25   -6 LegendNANA
12:00 -3.2 -6.6 77 8 7   102.22   -6 LegendNANA
13:00 -1.9 -7.0 68 10 6   102.16   -4 LegendNANA
14:00 -1.4 -7.1 65 7 10   102.14   -5 LegendNANA
15:00 -0.7 -7.0 63 10 8   102.09   -4 LegendNANA
16:00 -0.7 -7.3 61 11 7   102.08   -3 LegendNANA
17:00 -1.3 -5.7 72 9 12   102.00   -5 LegendNANA
18:00 -2.6 -6.4 75 13 12   101.96   -7 LegendNANA
19:00 -3.0 -7.0 74 13 9   101.88   -7 LegendNANA
20:00 -1.6 -7.3 65 13 16   101.81   -7 LegendNANA
21:00 -2.5 -6.8 72 15 4   101.76   -4 LegendNANA
22:00 -3.2 -6.4 79 8 13   101.67   -8 LegendNANA
23:00 -2.9 -6.2 78 7 14   101.61   -8 LegendNANA

Notes on Data Quality.

Legend

  • E = Estimated
  • M = Missing
  • NA = Not Available
  • ‡ = Partner data that is not subject to review by the National Climate Archives
Date modified: